Regional Weather Roundup
Issued by NWS

Home | Current Version | Previous Version | Text Only | Print | Product List | Glossary On
Versions: 1 2 3 4 5 6 7 8 9 10 11 12 13 14 15 16 17 18 19 20 21 22 23 24 25 26 27 28 29 30 31 32 33 34 35 36 37 38 39 40 41 42 43 44 45 46 47 48 49 50
000
ASUS43 KDTX 132201
RWRMI
MICHIGAN HOURLY REGIONAL WEATHER ROUNDUP
NATIONAL WEATHER SERVICE DETROIT/PONTIAC MI
600 PM EDT SUN JUL 13 2014

NOTE: "FAIR" INDICATES FEW OR NO CLOUDS BELOW 12,000 FEET WITH NO
SIGNIFICANT WEATHER AND/OR OBSTRUCTION TO VISIBILITY.

MIZ047>049-052>055-059>063-066>070-074>076-081>083-132300-
SOUTHEAST LOWER MICHIGAN

CITY           SKY/WX    TMP DP  RH WIND       PRES   REMARKS
ADRIAN         SUNNY     82  64  54 W13       29.89S
ALMA           PTSUNNY   78  60  54 W10       29.86S
ANN ARBOR      MOSUNNY   82  59  45 W13G22    29.87S
BAD AXE        PTSUNNY   77  60  56 W12       29.84R
CARO           MOSUNNY   81  62  51 W12       29.84S
DETROIT CITY   MOSUNNY   86  60  41 NW9       29.84S
DETROIT        MOSUNNY   84  62  47 W17       29.86R
FLINT          SUNNY     82  60  47 W10       29.86S
GROSSE ILE     MOSUNNY   84  63  48 W12       29.85R
HILLSDALE      MOSUNNY   80  65  59 W9        29.91S
HOWELL         MOSUNNY   79  59  49 NW8       29.87S

CITY           SKY/WX    TMP DP  RH WIND       PRES   REMARKS
JACKSON        SUNNY     80  58  46 W8        29.89S
LAMBERTVILLE   MOSUNNY   84  63  48 W12G18    29.88S
LANSING        SUNNY     80  59  48 W10       29.88S
LAPEER         FAIR      79  58  48 W9        29.86S
MASON          SUNNY     79  58  47 W12       29.88F
MONROE         SUNNY     84  63  48 W9        29.85S
MT. CLEMENS    MOSUNNY   84  60  43 W14G20    29.82S
PONTIAC        MOSUNNY   81  58  45 W14       29.86R
PORT HOPE        N/A     78  61  55 VRB5      29.81R
PORT HURON     MOSUNNY   81  61  50 W8        29.84S
TRI CITIES     CLOUDY    78  62  57 SW10      29.85R
TROY           MOSUNNY   83  58  41 NW13      29.86R
SAGINAW HB     PTSUNNY   79  55  44 W10       29.84R
$$
MIZ043>046-050>051-056>058-064>065-071>073-077>080-132300-
SOUTHWEST LOWER MICHIGAN

CITY           SKY/WX    TMP DP  RH WIND       PRES   REMARKS
BATTLE CREEK   SUNNY     80  57  45 NW10      29.90S
BENTON HARBOR  SUNNY     78  59  51 SW8       29.89F
BIG RAPIDS     CLOUDY    72  64  75 W6        29.85F
COLDWATER      SUNNY     81  59  47 W8        29.90S
FREMONT        CLOUDY    73  64  72 W8        29.88R
HOLLAND        SUNNY     79  61  53 SW13      29.89F
GRAND RAPIDS   MOSUNNY   80  64  58 W10       29.88F
IONIA          MOCLDY    78  61  57 W12       29.87S
KALAMAZOO      SUNNY     81  59  47 W8        29.90S
LUDINGTON      SUNNY     71  64  79 SW9       29.87S
MARSHALL       SUNNY     80  59  50 W7        29.89S
MOUNT PLEASANT SUNNY     79  60  51 W12G20    29.84S
MUSKEGON       PTSUNNY   74  64  71 SW13      29.88S
SOUTH HAVEN    SUNNY     78  61  56 SW8       29.89F
$$
MIZ016>042-132300-
NORTHERN LOWER MICHIGAN

CITY           SKY/WX    TMP DP  RH WIND       PRES   REMARKS
ALPENA         SUNNY     73  52  47 NW13      29.83R
BEAVER ISLAND  SUNNY     71  51  48 SW5       29.85S
BELLAIRE       SUNNY     72  49  45 W6        29.86R
CADILLAC       SUNNY     74  57  54 W12       29.86S
CHARLEVOIX     SUNNY     69  54  58 N5        29.89R
FRANKFORT      SUNNY     70  59  68 CALM      29.86S
GAYLORD        MOSUNNY   68  52  56 NW9       29.87R
GRAYLING       MOSUNNY   73  54  51 NW15      29.86S
HARBOR SPRINGS SUNNY     68  57  67 W5        29.85R
HOUGHTON LAKE  MOSUNNY   75  53  46 W14       29.85S
MANISTEE       SUNNY     72  57  60 W8        29.87R
OSCODA         SUNNY     80  53  39 W13G18    29.81R
PELLSTON       SUNNY     71  45  39 NW10      29.86R
ROGERS CITY    CLOUDY    70  53  55 W12G17    29.85R
TRAVERSE CITY  MOSUNNY   73  52  47 N8        29.84R
$$
MIZ007>008-015-132300-
EASTERN UPPER MICHIGAN

CITY           SKY/WX    TMP DP  RH WIND       PRES   REMARKS
KINROSS        SUNNY     66  46  48 NW15G22   29.83R
MACKINAC ISLAN SUNNY     68  46  45 W17       29.84R
NEWBERRY       SUNNY     69  47  46 W13G22    29.84R
S. S. MARIE    SUNNY     65  46  50 NW12      29.84R
$$
MIZ004>006-011>014-085-132300-
CENTRAL UPPER MICHIGAN

CITY           SKY/WX    TMP DP  RH WIND       PRES   REMARKS
MANISTIQUE     MOSUNNY   66  54  64 S6        29.83S
ESCANABA       CLOUDY    73  46  38 W10G16    29.83S
MENOMINEE      SUNNY     75  43  31 NW6       29.83S
SAWYER-GWINN   PTSUNNY   70  43  37 NW8       29.84S
$$
MIZ001>003-009>011-084-132300-
WESTERN UPPER MICHIGAN

CITY           SKY/WX    TMP DP  RH WIND       PRES   REMARKS
IRON MOUNTAIN  MOSUNNY   73  43  33 W13       29.84S
HOUGHTON       SUNNY     68  46  45 W20G30    29.81R
COPPER HARBOR    N/A     69  45  41 NW13G28   29.78S
IRONWOOD       PTSUNNY  N/A N/A N/A W15G22    29.81F
$$

ABBREVIATIONS USED IN REMARKS
   TC - TEMPERATURE IN CELSIUS
  WCI - WIND CHILL INDEX
   HX - HEAT INDEX
  VSB - VISIBILITY




USA.gov is the U.S. government's official web portal to all federal, state and local government web resources and services.